Raleigh-Durham Airport, NC

8:15 AM EDT on July 22, 2017 (GMT -0400)
Raleigh-Durham International

Weather History for KRDU - May, 2013

Change the Weather History Date:

Sunday, May 5, 2013

  Actual Average Record
Temperature  
Mean Temperature 55 °F 65 °F  
Max Temperature 60 °F 77 °F 92 °F (1955)
Min Temperature 50 °F 53 °F 35 °F (1973)
Degree Days  
Heating Degree Days 10 3  
Month to date heating degree days 35 16  
Since 1 July heating degree days 3271 3205  
Cooling Degree Days 0 3  
Month to date cooling degree days 0 15  
Year to date cooling degree days 50 76  
Growing Degree Days 5 (Base 50)    
Moisture  
Dew Point 49 °F    
Average Humidity 82    
Maximum Humidity 86    
Minimum Humidity 77    
Precipitation  
Precipitation T in 0.10 in 1.58 in (2012)
Month to date precipitation 0.01 0.45  
Year to date precipitation 14.52 14.21  
Snow  
Snow 0.00 in - - ()
Month to date snowfall 0.0  
Snow Depth 0.00 in    
Sea Level Pressure  
Sea Level Pressure 30.05 in    
Wind  
Wind Speed 12 mph (ENE)    
Max Wind Speed 21 mph    
Max Gust Speed 28 mph    
Visibility 10 miles    
Events Rain    
T = Trace of Precipitation, MM = Missing Value Source: NWS Daily Summary

Daily Weather History Graph

Daily Weather History Graph

Search for Another Location

Airport or City:

Trip Planner

Search our weather history database for the weather conditions in past years. The results will help you decide how hot, cold, wet, or windy it might be!

Date:

Astronomy

May. 05, 2013 Rise Set
Actual Time 6:18 AM EDT 8:05 PM EDT
Civil Twilight 5:50 AM EDT 8:33 PM EDT
Nautical Twilight 5:17 AM EDT 9:07 PM EDT
Astronomical Twilight 4:41 AM EDT 9:42 PM EDT
Moon 3:39 AM EDT (5/5) 4:10 PM EDT (5/5)
Length of Visible Light 14h 42m
Length of Day
13h 47m
Waning Crescent, 18% of the Moon is Illuminated
May 5
Waning Crescent
May 9
New
May 18
First Quarter
May 25
Full
May 31
Last Quarter

Hourly Weather History & Observations

Time (EDT) Temp. Dew Point Humidity Pressure Visibility Wind Dir Wind Speed Gust Speed Precip Events Conditions
12:08 AM 55.4 °F 46.4 °F 72% 30.11 in 10.0 mi ENE 13.8 mph 20.7 mph N/A   Mostly Cloudy
12:51 AM 54.0 °F 46.9 °F 77% 30.09 in 10.0 mi ENE 10.4 mph 20.7 mph N/A   Overcast
1:51 AM 53.1 °F 46.0 °F 77% 30.09 in 10.0 mi ENE 10.4 mph - N/A   Overcast
2:51 AM 52.0 °F 46.0 °F 80% 30.07 in 10.0 mi ENE 8.1 mph - N/A   Overcast
3:42 AM 51.8 °F 46.4 °F 82% 30.06 in 10.0 mi ENE 13.8 mph 18.4 mph N/A   Overcast
3:51 AM 51.1 °F 46.0 °F 83% 30.06 in 10.0 mi ENE 10.4 mph - N/A   Overcast
4:51 AM 51.1 °F 45.0 °F 80% 30.06 in 10.0 mi ENE 10.4 mph 18.4 mph N/A   Overcast
5:51 AM 50.0 °F 45.0 °F 83% 30.05 in 10.0 mi NE 13.8 mph 20.7 mph N/A   Overcast
6:51 AM 50.0 °F 44.1 °F 80% 30.07 in 10.0 mi ENE 11.5 mph 18.4 mph N/A   Overcast
7:51 AM 50.0 °F 45.0 °F 83% 30.07 in 10.0 mi ENE 12.7 mph - N/A   Overcast
8:51 AM 51.1 °F 45.0 °F 80% 30.09 in 10.0 mi ENE 12.7 mph 18.4 mph N/A   Overcast
9:51 AM 52.0 °F 46.0 °F 80% 30.08 in 10.0 mi ENE 15.0 mph 19.6 mph N/A   Overcast
10:51 AM 55.0 °F 48.0 °F 77% 30.06 in 10.0 mi ENE 11.5 mph - N/A   Overcast
11:51 AM 55.0 °F 48.0 °F 77% 30.07 in 10.0 mi ENE 13.8 mph - N/A   Overcast
12:51 PM 57.0 °F 50.0 °F 77% 30.06 in 10.0 mi ENE 9.2 mph 19.6 mph N/A   Overcast
1:51 PM 57.9 °F 51.1 °F 78% 30.05 in 10.0 mi ENE 10.4 mph - N/A   Overcast
2:51 PM 57.9 °F 52.0 °F 81% 30.05 in 10.0 mi East 10.4 mph - N/A   Overcast
3:51 PM 60.1 °F 54.0 °F 80% 30.02 in 9.0 mi ENE 12.7 mph - N/A   Overcast
4:51 PM 60.1 °F 53.1 °F 78% 30.01 in 10.0 mi East 18.4 mph 24.2 mph N/A   Overcast
5:51 PM 57.9 °F 54.0 °F 87% 30.01 in 10.0 mi ENE 12.7 mph 20.7 mph N/A   Overcast
6:51 PM 57.9 °F 54.0 °F 87% 30.00 in 9.0 mi East 10.4 mph 21.9 mph 0.00 in Rain Light Rain
7:30 PM 57.2 °F 53.6 °F 88% 30.00 in 10.0 mi ENE 12.7 mph - 0.00 in   Overcast
7:51 PM 59.0 °F 53.1 °F 81% 30.00 in 10.0 mi ENE 12.7 mph 19.6 mph 0.00 in   Overcast
8:51 PM 59.0 °F 53.1 °F 81% 30.01 in 10.0 mi ENE 12.7 mph 26.5 mph N/A   Overcast
9:51 PM 59.0 °F 53.1 °F 81% 30.01 in 10.0 mi East 18.4 mph 23.0 mph N/A   Overcast
10:51 PM 57.9 °F 53.1 °F 84% 30.01 in 10.0 mi ENE 12.7 mph 23.0 mph N/A   Overcast
11:51 PM 57.0 °F 53.1 °F 87% 30.00 in 10.0 mi East 15.0 mph 19.6 mph N/A   Overcast